User: anonymous   Login
Location: Kailua
(21.4020°N, 157.7390°W)
Time: 15:27:03
(UTC-10:00)
Language:

Cosmos 2297 Rocket - Orbit

View from above orbital plane
View from above orbital plane
View from above satellite
View from above satellite

Ground track
Ground track

The orbit data is extracted from the following two-line orbital elements,

1 23405U 94077B   15115.25620706  .00000294  00000-0  17601-3 0  9995
2 23405 070.9831 063.5724 0000790 025.7571 334.3591 14.15148816 54606
Epoch (UTC): 25 April 2015 06:08:56
Eccentricity: 0.0000790
inclination: 70.9831°
perigee height: 841 km
apogee height: 842 km
right ascension of ascending node: 63.5724°
argument of perigee: 25.7571°
revolutions per day: 14.15148816
mean anomaly at epoch: 334.3591°
orbit number at epoch: 5460

The dashed part of the orbit path shows where the satellite is in the earth's shadow,  

DLR